Location: Auckland
(36.8670°S, 174.7670°E)
Time: 10:48:43
(UTC+12:00)

USA 238 - Pass Details

Date: 24 January 2019
Orbit: 1043 x 1170 km, 63.4° (Epoch: 15 April)

Event Time Altitude Azimuth Distance (km) Brightness Sun altitude
Rises 22:12:42 0° 352° (N) 4,033 6.4 -16.7°
Reaches altitude 10° 22:15:34 10° 358° (N) 3,075 5.7 -17.1°
Maximum altitude 22:22:26 43° 66° (ENE) 1,579 4.1 -18.1°
Drops below altitude 10° 22:29:14 10° 135° (SE) 3,054 6.1 -19.1°
Sets 22:32:03 0° 141° (SE) 4,003 6.8 -19.5°
